Regional Weather Roundup
Issued by NWS

Home | Current Version | Previous Version | Text Only | Print | Product List | Glossary On
Versions: 1 2 3 4 5 6 7 8 9 10 11 12 13 14 15 16 17 18 19 20 21 22 23 24 25 26 27 28 29 30 31 32 33 34 35 36 37 38 39 40 41 42 43 44 45 46 47 48 49 50
000
ASUS46 KPQR 290710
RWROR

OREGON REGIONAL WEATHER ROUNDUP
NATIONAL WEATHER SERVICE PORTLAND OR
1200 AM PDT THU SEP 29 2016

NOTE: "FAIR" INDICATES FEW OR NO CLOUDS BELOW 12,000 FEET WITH
NO SIGNIFICANT WEATHER AND/OR OBSTRUCTIONS TO VISIBILITY.

ORZ001>013-290800-
NORTHWEST OREGON


CITY           SKY/WX    TMP DP  RH WIND       PRES   REMARKS
ASTORIA        PTCLDY    56  48  74 NW10      30.05S
NEWPORT        CLEAR     45  45 100 CALM      30.06S
PORTLAND       CLEAR     58  46  64 NW5       29.99F
VANCOUVER WA   CLEAR     59  46  62 CALM      29.99S
SCAPPOOSE      CLEAR     59  46  62 NW6       29.99S
HILLSBORO      CLEAR     55  32  41 W7        29.99F
AURORA         CLEAR     57  47  69 CALM      30.00S
MCMINNVILLE    CLEAR     52  46  80 W3        30.00F
SALEM          CLEAR     53  46  77 CALM      29.99S
CORVALLIS        N/A     54  46  76 NW7       30.00S
EUGENE         CLEAR     52  44  74 CALM      29.99S
$$

ORZ021-028-290800-
SOUTHWEST OREGON


CITY           SKY/WX    TMP DP  RH WIND       PRES   REMARKS
NORTH BEND       N/A     54  52  94 N8        30.04S
BROOKINGS      CLOUDY    52  51  97 CALM      30.00S FOG
ROSEBURG       CLEAR     59  43  55 CALM      29.98R
SEXTON SUMMIT  CLEAR     54  35  48 N8        30.02S
MEDFORD        CLEAR     65  49  56 CALM      29.94R
$$

ORZ014>016-041-290800-
COLUMBIA GORGE


CITY           SKY/WX    TMP DP  RH WIND       PRES   REMARKS
TROUTDALE      CLEAR     54  49  83 CALM      29.99S
THE DALLES     CLEAR     61  49  64 SW3       29.94R
$$

ORZ029>031-041-044-049-050-061>064-502-503-505>511-290800-
EASTERN OREGON


CITY           SKY/WX    TMP DP  RH WIND       PRES   REMARKS
REDMOND        CLEAR     57  37  47 SW3       30.00S
BEND           CLEAR     57  39  51 W5        30.01F
PRINEVILLE     CLEAR     55  37  50 CALM      30.01S
KLAMATH FALLS  CLEAR     50  42  74 CALM      30.04R
LAKEVIEW       CLEAR     55  28  35 CALM      30.09R
HERMISTON      CLEAR     55  44  66 E6        29.92S
PENDLETON      CLEAR     55  40  56 SE6       29.94S
JOHN DAY       PTCLDY    62  40  45 W7        30.01S
MEACHAM        CLEAR     43  36  76 CALM      30.03F
LA GRANDE      CLEAR     55  36  47 CALM      29.97S
BAKER CITY     CLEAR     52  38  58 CALM      29.99S
BURNS          MOCLDY    59  35  40 W12       29.99S
ROME             N/A     63  25  23 SE12      29.97S
ONTARIO        CLEAR     57  45  64 W5        29.92S
$$



USA.gov is the U.S. government's official web portal to all federal, state and local government web resources and services.